Regional Weather Roundup
Issued by NWS

Home | Current Version | Previous Version | Text Only | Print | Product List | Glossary Off
Versions: 1 2 3 4 5 6 7 8 9 10 11 12 13 14 15 16 17 18 19 20 21 22 23 24 25 26 27 28 29 30 31 32 33 34 35 36 37 38 39 40 41 42 43 44 45 46 47 48 49 50

000
ASUS44 KMEG 201710
RWRTN
TENNESSEE HOURLY STATE WEATHER ROUNDUP
NATIONAL WEATHER SERVICE MEMPHIS TN
1100 AM CST TUE FEB 20 2018

TNZ002-004-019-021-049-052-054-088>092-201800-
WEST TENNESSEE

CITY           SKY/WX    TMP DP  RH WIND       PRES   REMARKS
MEMPHIS INTL   PTSUNNY   74  62  66 S17G26    30.15S
NWS MEMPHIS      N/A     73 N/A N/A MISG        N/A
JACKSON        PTSUNNY   72  60  66 S23G30    30.18R
DYERSBURG      PTSUNNY   73  60  63 S12G22    30.15R
SOMERVILLE     CLOUDY    72  61  68 S16G26    30.17S
COVINGTON      MOSUNNY   72  63  73 S17G28    30.15S
UNION CITY     PTSUNNY   73  61  64 S18       30.13S
BOLIVAR        CLOUDY    72  61  68 S15G21    30.18S
PARIS          SUNNY     73  59  60 S16G23    30.15S
HUNTINGDON       N/A     73  59  60 S18       30.16R
LEXINGTON      CLOUDY    70  59  68 S17G26    30.20S
SELMER         CLOUDY    70  61  73 S12G25    30.20F
SAVANNAH       CLOUDY    70  61  73 S16G23    30.22S
$$

TNZ008-025-027-028-033-062-065-066-201800-
NORTH MIDDLE TENNESSEE

CITY           SKY/WX    TMP DP  RH WIND       PRES   REMARKS
NASHVILLE      PTSUNNY   76  57  51 S23G35    30.23S
PORTLAND       MOSUNNY   73  57  56 S25G32    30.21S
CLARKSVILLE    FAIR      74  50  42 S25G32    30.17S
SMYRNA         PTSUNNY   75  59  57 S14G28    30.24S
COOKEVILLE     CLOUDY    75  59  57 S20G29    30.27F
GALLATIN       CLOUDY    75  59  57 S13G21    30.25S
CROSSVILLE     PTSUNNY   65  57  75 S13G24    30.34S
$$

TNZ061-075-076-078-094-096-097-201800-
SOUTH MIDDLE TENNESSEE

CITY           SKY/WX    TMP DP  RH WIND       PRES   REMARKS
FAYETTEVILLE   MOSUNNY   73  61  64 S18G24    30.28S
TULLAHOMA      PTSUNNY   73  59  60 S16G26    30.27F
WINCHESTER     MOSUNNY   75  59  57 S17G31    30.29S
MCMINNVILLE    PTSUNNY   75  59  57 S17G30    30.27S
COLUMBIA       CLOUDY    72  63  73 S16G30    30.22S
SHELBYVILLE    MOSUNNY   75  61  60 S25G33    30.26S
$$

TNZ017-018-042-046-047-201800-
NORTHEAST TENNESSEE

CITY           SKY/WX    TMP DP  RH WIND       PRES   REMARKS
TRI CITIES     FAIR      75  54  47 S15       30.35F
ELIZABETHTON   FAIR      73  52  46 VRB6G14   30.36F
$$

TNZ012-013-036-069-073-074-201800-
CENTRAL EAST TENNESSEE

CITY           SKY/WX    TMP DP  RH WIND       PRES   REMARKS
KNOXVILLE      FAIR      74  55  51 SW21G26   30.31F
OAK RIDGE      FAIR      71  61  70 VRB6      30.34F
DOWNTOWN KNOXV MOSUNNY   77  55  47 SW16      30.32F
GATLINBURG     SUNNY     75  54  46 CALM      30.33F
MORRISTOWN     SUNNY     73  55  53 S10G16    30.34F
JACKSBORO      CLOUDY    73  57  56 S15G22    30.35F
$$

TNZ083-085-099-201800-
SOUTHEAST TENNESSEE

CITY           SKY/WX    TMP DP  RH WIND       PRES   REMARKS
CHATTANOOGA    CLOUDY    67  59  75 S3        30.35S
$$

SKY/WX REPORTED AS FAIR MEANS FEW OR NO CLOUDS BELOW
12 THOUSAND FEET.




USA.gov is the U.S. government's official web portal to all federal, state and local government web resources and services.